Home > Weather > Asheville > Past weeks

Flag for U.S.A. Weather for the Past 2 Weeks in Asheville, North Carolina, U.S.A.

Now
38 °F

Sunny.


Feels Like: 30 °F
Forecast: 16 / 38 °F
Wind: 14 mph from Northwest

Location: Asheville Regional Airport

Current Time: Feb 11, 2016 at 6:32:41 PM

Latest Report: Feb 11, 2016 at 4:54 PM


Visibility: 10 mi

Pressure: 30.15 "Hg (27.83 "Hg at 647m altitude)

Humidity: 43%

Dew point: 17 °F

Location of AshevilleLocation

Historic Weather in Asheville — Graph

°F

Asheville Temperature Yesterday

Maximum temperature yesterday: 28 °F (at 3:54 PM)
Minimum temperature yesterday: 17 °F (at 6:54 AM)
Average temperature yesterday: 22 °F

High & Low Weather Summary for the Past Weeks

 TemperatureHumidityPressure
High66 °F (Feb 1, 12:54 PM)97% (Feb 2, 6:54 AM)30.43 "Hg (Feb 2, 6:54 AM)
Low17 °F (Feb 10, 6:54 AM)19% (Feb 6, 3:54 PM)29.62 "Hg (Feb 8, 2:54 PM)
Average39 °F64%30.01 "Hg
* Reported Jan 27 3:54 PM — Feb 11 3:54 PM, Asheville, Weather by CustomWeather, © 2016

Note: Actual official high and low records may vary slightly from our data, if they occured in-between our weather recording intervals... More about our weather records

Advertising

Asheville Weather History for the Previous 24 Hours

 ConditionsComfort  
Time TempWeatherWind HumidityBarometerVisibility
3:54 PM
Thu, Feb 11
39 °FSunny.12 mph41%30.13 "Hg10 mi
2:54 PM38 °FSunny.9 mph43%30.12 "Hg10 mi
1:54 PM38 °FSunny.15 mph41%30.12 "Hg10 mi
12:54 PM36 °FSunny.12 mph44%30.14 "Hg10 mi
11:54 AM35 °FSunny.13 mph46%30.17 "Hg10 mi
10:54 AM30 °FOvercast.10 mph54%30.19 "Hg10 mi
9:54 AM27 °FPartly sunny.9 mph61%30.18 "Hg10 mi
8:54 AM24 °FPartly sunny.12 mph65%30.16 "Hg10 mi
7:54 AM21 °FOvercast.10 mph74%30.15 "Hg10 mi
6:54 AM20 °FPassing clouds.7 mph74%30.14 "Hg10 mi
5:54 AM20 °FPassing clouds.8 mph71%30.12 "Hg10 mi
4:54 AM20 °FMostly cloudy.9 mph68%30.11 "Hg10 mi
3:54 AM20 °FPassing clouds.14 mph65%30.08 "Hg10 mi
2:54 AM20 °FOvercast.8 mph57%30.08 "Hg10 mi
1:54 AM20 °FClear.7 mph52%30.08 "Hg10 mi
12:54 AM21 °FClear.16 mph41%30.06 "Hg10 mi
11:54 PM
Wed, Feb 10
21 °FClear.14 mph41%30.08 "Hg10 mi
10:54 PM22 °FClear.7 mph40%30.08 "Hg10 mi
9:54 PM23 °FPassing clouds.9 mph38%30.07 "Hg10 mi
8:54 PM23 °FPartly cloudy.9 mph38%30.05 "Hg10 mi
7:54 PM23 °FOvercast.13 mph36%30.04 "Hg10 mi
6:54 PM23 °FPassing clouds.10 mph36%30.02 "Hg10 mi
Weather by CustomWeather, © 2016

See weather overviewHow to use our weather pages